Location: Dana
(41.8364°N, 106.7042°W)
Time: 13:51:26
(UTC+00:00)

Vanguard 3 - Pass Details

Date: 15 May 2026
Orbit: 507 x 3204 km, 33.3° (Epoch: 8 June)

Event Time Altitude Azimuth Distance (km) Brightness Sun altitude
Rises 18:28:11 0° 207° (SSW) 6,043 11.8 66.0°
Reaches altitude 10° 18:32:26 10° 198° (SSW) 5,361 11.8 66.2°
Maximum altitude 18:46:41 33° 142° (SE) 4,382 11.9 66.9°
Drops below altitude 10° 19:02:29 10° 88° (E) 5,996 11.7 67.2°
Sets 19:07:32 0° 80° (E) 6,828 11.8 67.2°
